Tracking 28052 objects as of 25-Sep-2023
HD Live streaming from Space Station
objects crossing your sky now

GALAXY 35

Track GALAXY 35 now!
GALAXY 35 is classified as:


NORAD ID: 54741
Int'l Code: 2022-170A
Perigee: 35,788.2 km
Apogee: 35,799.7 km
Inclination: 0.0 °
Period: 1,436.1 minutes
Semi major axis: 42164 km
RCS: Unknown
Launch date: December 13, 2022
Source: United States (US)
Launch site: FRENCH GUIANA (FRGUI)
Your satellite tracking list
Your tracking list is empty




NASA's NSSDC Master Catalog

Two Line Element Set (TLE):
1 54741U 22170A   23267.91507632 -.00000171  00000-0  00000-0 0  9996
2 54741   0.0127 234.6776 0001361 304.0433  61.0937  1.00270988  2908
Source of the keplerian elements: AFSPC